essaha.info alexa rank chart, essaha.info alexa rank daily changes

essaha.info alexa rank chart, essaha.info alexa rank daily changes

essaha.info
Actual rank:
44 404

RANK HISTORY

Date Rank Diff
2017/08/20 44 404 -945
2017/08/19 45 349 -4 147
2017/08/18 49 496 -6 195
2017/08/17 55 691 -6 030
2017/08/16 61 721 -3 233
2017/08/15 64 954 -11 548
2017/08/14 76 502 -19 216
2017/08/13 95 718 +276
2017/08/12 95 442 -831
2017/08/11 96 273 +654
2017/08/10 95 619 +1 109
2017/08/09 94 510 +884
2017/08/08 93 626 -655
2017/08/07 94 281 +986
2017/08/06 93 295 -175
2017/08/05 93 470 -52
2017/08/04 93 522 +886
2017/08/03 92 636 +105
2017/08/02 92 531 -904
2017/08/01 93 435 -1 085
2017/07/31 94 520 +2 745
2017/07/30 91 775 -153
2017/07/29 91 928 +834
2017/07/28 91 094 -213
2017/07/27 91 307 +3 188
2017/07/26 88 119 +56
2017/07/25 88 063 -891
2017/07/24 88 954 -530
2017/07/23 89 484 -1 619
2017/07/22 91 103 -190
2017/07/21 91 293 +100
2017/07/20 91 193 +984
2017/07/19 90 209 +227
2017/07/18 89 982 +7 520
2017/07/17 82 462 +8 660
2017/07/16 73 802 +5 530
2017/07/15 68 272 +5 547
2017/07/14 62 725 +4 058
2017/07/13 58 667 +5 004
2017/07/12 53 663 +4 063
2017/07/11 49 600 +948
2017/07/10 48 652 +1 846
2017/07/09 46 806 +1 706
2017/07/08 45 100 +2 946
2017/07/07 42 154 +2 161
2017/07/06 39 993 +2 872
2017/07/05 37 121 +2 426
2017/07/04 34 695 +1 522
2017/07/03 33 173 +1 245
2017/07/02 31 928 +1 222
2017/07/01 30 706 +1 684
2017/06/30 29 022 +1 314
2017/06/29 27 708 +1 503
2017/06/28 26 205 +834
2017/06/27 25 371 +495
2017/06/26 24 876 +740
2017/06/25 24 136 +674
2017/06/24 23 462 +533
2017/06/23 22 929 +759
2017/06/22 22 170 +738
2017/06/21 21 432

WIDGET FOR YOUR SITE

DOMAINS WITH THE NEAREST RANK

Domain Rank
toywiz.com 44 399
avopolis.gr 44 400
gay.ru 44 401
theforce.net 44 402
puntoticket.com 44 403
essaha.info 44 404
supersport.hr 44 405
yanj.cn 44 406
tintuconline.com.vn 44 407
empresascnpj.com 44 408
ciudadredonda.org 44 409

DOMAINS WITH THE NEAREST RANK BY TLD .info

Domain Rank
uptorrentfilespacedownhostabc.info 43 602
medias-presse.info 43 841
btcforkmonitor.info 43 931
torrentgamesps2.info 44 208
emias.info 44 222
essaha.info 44 404
icwutudidare.info 44 827
compute.info 44 914
porn77.info 45 014
newshipin.info 45 034
wien.info 45 079